This demonstration page uses our WeatherBlox Daily Observations layout. Learn more.

Left ArrowRight Arrow

39.92423, -83.80882

Hourly Observations for November 13, 2018

Temp ( °F °C ) Dew Point ( °F °C ) Humidity (%) Winds ( mph kmh ) Pressure ( in mb ) Visibility ( mi km ) Precip ( " mm )
12:13 am 00:13 Cloudy with Light Snow 34 1 32 undefined 93 93 NNE 5 7 30.24 1024 2.5 4.02335 N/A
12:46 am 00:46 Cloudy with Light Rain 34 1 32 undefined 93 93 N 5 7 30.24 1024 3 4.82802 N/A
12:56 am 00:56 Cloudy with Light Rain 33 0.6 32 undefined 96 96 NE 3 6 30.21 1023 5 8.0467 N/A
1:56 am 01:56 Cloudy 33 0.6 32 undefined 96 96 WNW 5 7 30.2 1023 7 11.26538 N/A
3:56 am 03:56 Cloudy 34 1.1 31 -0.6 89 89 NNW 6 9 30.18 1022 10 16.0934 N/A
4:56 am 04:56 Cloudy 34 1.1 31 -0.6 89 89 NNW 9 15 30.19 1023 9 14.48406 N/A
5:24 am 05:24 Cloudy with Light Snow 34 1 32 undefined 93 93 NNW 7 11 30.21 1023 5 8.0467 N/A
5:32 am 05:32 Cloudy with Light Snow 34 1 32 undefined 93 93 NNW 7 11 30.21 1023 2.5 4.02335 N/A
5:52 am 05:52 Cloudy with Light Snow 34 1 34 1 100 100 WNW 6 9 30.24 1024 3 4.82802 N/A
5:56 am 05:56 Cloudy with Light Snow 33 0.6 33 0.6 100 100 WNW 6 9 30.21 1023 3 4.82802 N/A
6:56 am 06:56 Cloudy with Light Snow 34 1.1 33 0.6 97 97 NW 7 11 30.22 1023 4 6.43736 N/A
7:17 am 07:17 Cloudy with Light Snow 34 1 34 1 100 100 NNW 7 11 30.24 1024 3 4.82802 N/A
7:28 am 07:28 Cloudy with Light Rain 34 1 34 1 100 100 NNW 12 19 30.24 1024 2 3.21868 N/A
7:56 am 07:56 Cloudy with Mist and Fog 34 1.1 34 1.1 100 100 NNW 7 11 30.23 1024 2.5 4.02335 N/A
8:49 am 08:49 Cloudy with Mist and Fog 34 1 34 1 100 100 NNW 9 15 30.27 1025 3 4.82802 N/A
8:56 am 08:56 Cloudy with Mist and Fog 34 1.1 33 0.6 97 97 NNW 12 19 30.26 1025 3 4.82802 N/A
9:10 am 09:10 Cloudy with Mist and Fog 34 1 34 1 100 100 NW 15 24 30.3 1026 2 3.21868 N/A
9:31 am 09:31 Cloudy with Light Wintry Mix 34 1 34 1 100 100 NW 15 24 30.3 1026 1.75 2.816345 N/A
9:38 am 09:38 Cloudy with Light Wintry Mix 34 1 34 1 100 100 NNW 12 19 30.3 1026 2.5 4.02335 N/A
9:49 am 09:49 Cloudy with Light Wintry Mix 34 1 34 1 100 100 NNW 14 22 30.3 1026 1.25 2.011675 N/A
9:56 am 09:56 Cloudy with Light Wintry Mix 33 0.6 33 0.6 100 100 NW 14 22 30.28 1025 1.25 2.011675 N/A
10:06 am 10:06 Cloudy with Mist and Fog 34 1 34 1 100 100 NNW 12 19 30.3 1026 1 1.60934 N/A
10:16 am 10:16 Cloudy with Mist and Fog 32 undefined 32 undefined 100 100 NNW 14 22 30.3 1026 0.75 1.207005 N/A
10:23 am 10:23 Cloudy with Mist and Fog 32 undefined 32 undefined 100 100 NNW 14 22 30.3 1026 1.25 2.011675 N/A
10:32 am 10:32 Cloudy with Mist and Fog 32 undefined 32 undefined 100 100 NNW 15 24 30.3 1026 3 4.82802 N/A
10:48 am 10:48 Cloudy with Mist and Fog 32 undefined 32 undefined 100 100 N 17 28 30.3 1026 4 6.43736 N/A
10:56 am 10:56 Cloudy 32 undefined 31 -0.6 96 96 N 10 17 30.29 1026 7 11.26538 N/A
11:05 am 11:05 Cloudy 34 1 32 undefined 93 93 NNW 12 19 30.33 1027 9 14.48406 N/A
11:56 am 11:56 Cloudy 35 1.7 28 -2.2 76 76 NNW 15 24 30.31 1026 10 16.0934 N/A
12:03 pm 12:03 Cloudy 36 2 28 -2 75 75 NNW 10 17 30.33 1027 10 16.0934 N/A
12:30 pm 12:30 Cloudy 36 2 28 -2 75 75 NNW 13 20 30.33 1027 10 16.0934 N/A
12:56 pm 12:56 Cloudy 35 1.7 27 -2.8 72 72 NNW 13 20 30.3 1026 10 16.0934 N/A
1:15 pm 13:15 Cloudy 36 2 27 -3 70 70 NW 12 19 30.33 1027 10 16.0934 N/A
1:56 pm 13:56 Cloudy 35 1.7 26 -3.3 70 70 NW 13 20 30.3 1026 10 16.0934 N/A
2:56 pm 14:56 Cloudy 35 1.7 24 -4.4 64 64 NW 14 22 30.31 1026 10 16.0934 N/A
3:56 pm 15:56 Cloudy 35 1.7 24 -4.4 64 64 NNW 12 19 30.33 1027 10 16.0934 N/A
4:56 pm 16:56 Cloudy 33 0.6 24 -4.4 70 70 NW 9 15 30.35 1028 10 16.0934 N/A
5:56 pm 17:56 Cloudy 32 undefined 24 -4.4 73 73 NW 13 20 30.37 1029 10 16.0934 N/A
6:56 pm 18:56 Cloudy 31 -0.6 23 -5 72 72 NW 10 17 30.39 1029 10 16.0934 N/A
7:56 pm 19:56 Cloudy 31 -0.6 21 -6.1 67 67 NW 13 20 30.41 1030 10 16.0934 N/A
8:56 pm 20:56 Mostly Clear 29 -1.7 22 -5.6 75 75 WNW 8 13 30.43 1031 10 16.0934 N/A
9:18 pm 21:18 Mostly Cloudy 28 -2 23 -5 80 80 NW 7 11 30.45 1031 10 16.0934 N/A
9:56 pm 21:56 Cloudy 29 -1.7 20 -6.7 69 69 NW 12 19 30.45 1031 10 16.0934 N/A
10:25 pm 22:25 Partly Cloudy 27 -3 19 -7 74 74 NNW 9 15 30.48 1032 10 16.0934 N/A
10:56 pm 22:56 Clear 26 -3.3 19 -7.2 75 75 NW 6 9 30.47 1032 10 16.0934 N/A
11:56 pm 23:56 Clear 25 -3.9 19 -7.2 78 78 NW 5 7 30.49 1033 10 16.0934 N/A

Powered by AerisWeather